Torna al catalogo

TURKSAT 5B

AttivoComunicazioniGEO
NORAD 50212·PAYLOAD·🇹🇷 Turkey

Lanciato Dec 19, 2021 da Cape Canaveral Space Force Station

Loading…

TLE

AggiornatoSource: Space-Track

Epoca: Sep 14, 2026, 05:26 UTC

1 50212U 21126A   26257.22706410  .00000137  00000-0  00000-0 0  9997
2 50212   0.0744 333.9872 0001807 330.1754 172.7663  1.00272882 17191

Traccia TURKSAT 5B in tempo reale con AllMySat

Download on the App Store